Simultaneous Nadir Overpasses (SNOs) Predictions

Prediction of SNOs over PacNW region [( 10.00, 139.50) to ( 22.70, 165.60)] between AQUA and NPP Satellites:

Table of predicted SNOs over PacNW region for the next 30.0 days since TLE Epoch: 2/18/2023
Index Date (AQUA) Time (AQUA) AQUA Lat,Lon Date (NPP) Time (NPP) NPP Lat,Lon Distance(km) Time Diff (sec)
1 02/18/2023 15:14:14 19.77, 160.67 02/18/2023 15:13:26 20.53, 156.66 427.11 48
2 03/01/2023 02:39:25 22.65, 163.02 03/01/2023 02:37:52 21.80, 158.78 446.93 93
3 03/01/2023 04:15:52 13.99, 140.30 03/01/2023 04:16:51 12.94, 135.53 529.53 59
4 03/03/2023 16:16:51 10.00, 143.61 03/03/2023 16:13:21 10.27, 140.02 393.82 210
5 03/11/2023 15:18:40 22.66, 160.22 03/11/2023 15:18:40 23.77, 156.00 449.23 0
6 03/14/2023 03:38:49 22.66, 148.28 03/14/2023 03:35:20 23.67, 144.12 440.73 209
